User: anonymous   Login
Location: Nag� el Ma?a??a
(24.0667°N, 32.8833°E)
Time: 18:32:12
(UTC+00:00)
Language:

Cosmos 1515 - Orbit

View from above orbital plane
View from above orbital plane
View from above satellite
View from above satellite

Ground track
Ground track

The orbit data is extracted from the following two-line orbital elements,

1 14551U 83122A   22022.84051681  .00001838  00000-0  85393-4 0  9995
2 14551  82.5007 309.2239 0005969 196.6330 163.4710 15.19381086824531
Epoch (UTC): 22 January 2022 20:10:20
Eccentricity: 0.0005969
inclination: 82.5007°
perigee height: 503 km
apogee height: 512 km
right ascension of ascending node: 309.2239°
argument of perigee: 196.6330°
revolutions per day: 15.19381086
mean anomaly at epoch: 163.4710°
orbit number at epoch: 82453

The dashed part of the orbit path shows where the satellite is in the earth's shadow,  

DLR